Location: Allonne
(49.4086°N, 2.1143°E)
Time: 22:36:01
(UTC+00:00)

DELTA 2 DEB (DPAF) - Visible Passes

Search period start: 22 September 2023 00:00
Search period end: 02 October 2023 00:00
Orbit: 615 x 621 km, 98.4° (Epoch: 21 September)

Date Brightness Start Highest point End Pass type
(mag) Time Alt. Az. Time Alt. Az. Time Alt. Az.
22 Sep 6.4 04:33:56 10° ESE 04:37:36 28° ENE 04:41:17 10° N visible
22 Sep 5.7 19:27:46 10° N 19:31:46 37° WNW 19:35:45 10° SW visible
23 Sep 5.7 04:50:04 10° SE 04:54:03 39° ENE 04:58:04 10° N visible
23 Sep 6.3 19:44:32 10° N 19:48:12 27° WNW 19:51:51 10° WSW visible
24 Sep 5.0 05:06:19 10° SSE 05:10:31 55° ENE 05:14:45 10° N visible
24 Sep 4.2 18:24:40 10° NNE 18:28:55 53° E 18:33:08 10° S visible
24 Sep 6.8 20:01:25 10° NNW 20:04:35 20° WNW 20:07:45 10° WSW visible
25 Sep 7.4 03:50:11 10° ENE 03:51:44 12° NE 03:53:18 10° NNE visible
25 Sep 4.0 18:41:07 10° NNE 18:45:28 78° ESE 18:49:48 10° S visible
25 Sep 7.2 20:18:26 10° NNW 20:20:55 15° WNW 20:23:23 10° W visible
26 Sep 7.2 04:05:25 10° E 04:08:02 16° ENE 04:10:38 10° NNE visible
26 Sep 4.3 18:57:38 10° NNE 19:01:58 74° WNW 19:06:16 10° SSW visible
26 Sep 7.5 20:35:55 10° NW 20:37:12 11° NW 20:38:29 10° WNW visible
27 Sep 6.8 04:21:06 10° ESE 04:24:21 21° ENE 04:27:37 10° NNE visible
27 Sep 5.0 19:14:12 10° N 19:18:24 51° WNW 19:22:35 10° SW visible
28 Sep 6.3 04:36:59 10° ESE 04:40:41 29° ENE 04:44:24 10° N visible
28 Sep 5.7 19:30:49 10° N 19:34:47 36° WNW 19:38:45 10° SW visible
29 Sep 5.6 04:53:01 10° SE 04:57:02 40° ENE 05:01:04 10° N visible
29 Sep 4.5 18:11:13 10° NNE 18:15:16 38° E 18:19:18 10° SSE visible
29 Sep 6.3 19:47:30 10° N 19:51:08 27° WNW 19:54:45 10° WSW visible
30 Sep 4.9 05:09:12 10° SSE 05:13:24 56° ENE 05:17:39 10° N visible
30 Sep 4.1 18:27:30 10° NNE 18:31:46 55° ESE 18:36:00 10° S visible
30 Sep 6.8 20:04:16 10° NNW 20:07:24 20° WNW 20:10:32 10° WSW visible
01 Oct 7.4 03:52:51 10° ENE 03:54:31 12° NE 03:56:11 10° NNE visible
01 Oct 4.0 18:43:51 10° NNE 18:48:13 79° ESE 18:52:32 10° SSW visible
01 Oct 7.1 20:21:13 10° NNW 20:23:38 15° WNW 20:26:04 10° W visible
